Terminal Aerodrome Forecast
Issued by NWS

Home | Current Version | Previous Version | Text Only | Print | Product List | Glossary On
Versions: 1 2 3 4 5 6 7 8 9 10 11 12 13 14 15 16 17
000
FTUS43 KFGF 011700
TAFBJI
TAF
KBJI 011721Z 0118/0218 30014KT P6SM SCT035
     FM020100 30009KT P6SM VCSH BKN050
     FM020300 24006KT P6SM SCT060=

USA.gov is the U.S. government's official web portal to all federal, state and local government web resources and services.